Skip Page Navigation
NASA JPL Caltech
NASA Logo - Jet Propulsion Laboratory + View the NASA Portal
+ Near-Earth Object (NEO) Program
Search JPL
JPL Home Earth Solar System Stars & Galaxies Technology
JPL Solar System Dynamics
BODIES ORBITS EPHEMERIDES TOOLS PHYSICAL DATA DISCOVERY FAQ SITE MAP
JPL Small-Body Database Browser
Search: [ help ]  
35243 (1995 TZ1)
Classification: Main-belt Asteroid          SPK-ID: 2035243
Ephemeris | Orbit Diagram | Orbital Elements | Physical Parameters | Discovery Circumstances | Close-Approach Data ]

[ show orbit diagram ]
Orbital Elements at Epoch 2457000.5 (2014-Dec-09.0) TDB
Reference: JPL 14 (heliocentric ecliptic J2000)
 Element Value Uncertainty (1-sigma)   Units 
e .2385861280690295 7.3938e-08  
a 2.630449271297499 1.5171e-08 AU
q 2.002860564576629 1.927e-07 AU
i 7.631851315207458 8.5973e-06 deg
node 42.66326572092608 3.7882e-05 deg
peri 201.3007858785096 4.0326e-05 deg
M 312.0759753324882 1.2251e-05 deg
tp 2457207.940764965996
(2015-Jul-04.44076497)
5.2777e-05 JED
period 1558.27220075663
4.27
1.3481e-05
3.691e-08
d
yr
n .2310251057711223 1.9987e-09 deg/d
Q 3.258037978018369 1.8791e-08 AU
  Orbit Determination Parameters
   # obs. used (total)      814  
   data-arc span      7244 days (19.83 yr)  
   first obs. used      1995-10-14  
   last obs. used      2015-08-14  
   planetary ephem.      DE431  
   SB-pert. ephem.      SB431-BIG16  
   condition code      0  
   fit RMS      .56604  
   data source      ORB  
   producer      Otto Matic  
   solution date      2015-Sep-02 15:27:16  

Additional Information
 Earth MOID = .993918 AU 
 T_jup = 3.347 
[ show covariance matrix ]

Ephemeris | Orbit Diagram | Orbital Elements | Physical Parameters | Discovery Circumstances | Close-Approach Data ]

Physical Parameter Table
Parameter Symbol Value Units Sigma Reference Notes
absolute magnitude H 14.3 mag n/a MPO324628  

35243 (1995 TZ1)          Discovered 1995-Oct-14 by BAO Schmidt CCD Asteroid Program at Xinglong
Reference: 20020227/Numbers.arcLast Updated: 2004-04-19

[ show close-approach data ]
Alternate Designations
 1995 TZ1 = 1998 KR62 
Ephemeris | Orbit Diagram | Orbital Elements | Physical Parameters | Discovery Circumstances | Close-Approach Data ]
ABOUT SSD CREDITS/AWARDS PRIVACY/COPYRIGHT GLOSSARY LINKS
FirstGov 2015-Sep-04 18:50 UT
(server date/time)  
NASA Home Page
Site Manager:   Ryan S. Park
Webmaster  Alan B. Chamberlin